Location: Evergreen Manor
(41.4083°N, 81.4939°W)
Time: 11:06:25
(UTC+00:00)

Cosmos 1602 - Pass Details

Date: 11 December 2019
Orbit: 515 x 534 km, 82.5° (Epoch: 25 January)

Event Time Altitude Azimuth Distance (km) Brightness Sun altitude
Rises 11:02:42 0° 197° (SSW) 2,618 7.3 -17.9°
Reaches altitude 10° 11:04:51 10° 202° (SSW) 1,736 6.3 -17.5°
Maximum altitude 11:08:34 52° 280° (W) 644 3.7 -16.9°
Drops below altitude 10° 11:12:20 10° 358° (N) 1,753 6.2 -16.2°
Sets 11:14:31 0° 3° (N) 2,647 7.2 -15.8°
